Weather in Krasnovostochny

Russia / Karachay-Cherkess Republic     43°57′26″N   42°17′49″E
temp.,
°C
wind,
m/s
gust,
m/s
humid.,
%
clouds,
%
prec.,
mm/h
press.,
hPa
HPBL,
m
16 june, wed
wed1600:00+14s22920 0.0 101111
03:00+13sse11912 0.0 101210
06:00+14se22880 0.0 101160
09:00+19ene348494 0.1 1010879
12:00+20ene568683 0.4 1010786
15:00+20ene788480 0.7 1009821
18:00+19e688910 0.2 1008597
21:00+15se33930 0.3 100846
17 june, thu
thu1700:00+14sse22902 0.0 100616
03:00+14s22860 0.0 100614
06:00+15wsw238720 0.2 100867
09:00+18nw458544 0.3 1009631
12:00+17wnw7109047 0.6 1012711
15:00+17wnw578959 2.2 1014710
18:00+15wnw259797 1.7 1016344
21:00+13w22969 1.9 101833
18 june, fri
fri1800:00+12wnw229887 0.0 1018104
03:00+13w119990 0.1 101991
06:00+13wsw129673 0.1 101988
09:00+15n219155 0.1 1019384
12:00+18n327787 0.1 1018892
15:00+18nne227897 0.2 1018765
18:00+17ene238353 0.0 1018572
21:00+14se21922 0.0 101911
19 june, sat
sat1900:00+13sse22920 0.0 101815
03:00+13sse22900 0.0 101815
06:00+15se22870 0.0 101867
09:00+19e578023 0.0 1017765
12:00+21e10117810 0.0 1016881
15:00+21e1012831 0.1 1015795
18:00+20e812850 0.4 1015610
21:00+17ese48900 0.4 1016225
20 june, sun
sun2000:00+15se33900 0.0 101550
03:00+15se33860 0.0 101543
06:00+16se22790 0.0 101441
09:00+21e34720 0.0 1013386
12:00+24e55710 0.0 1012682
15:00+23e557614 0.0 1012650
18:00+22e238320 0.2 1012352
21:00+18se23935 0.3 101432